Dades meteomassalio
Diari Summary for Juny 15, 2017 Units:  Metric    English   Both
« Previous Day
Next Day »
Diari Semanal Mensual Anual Personalitzat
  Maxima: Minima: Mijana:
Temperatura: 36.0 °C 19.1 °C 27.8 °C
Rosada: 18.1 °C 13.2 °C 14.9 °C
Humitat: 72 % 29 % 47 %
Velocitat del vent: 27.8 km/h 0.0 km/h 2.8 km/h
Racha vent: 27.8 km/h - -
Vent:- - SW
Pressio: 1018.2 hPa 1011.1 hPa -
Pluja: 0.0 mm    
Historical Graphs
 
 
Tabular Data for Juny 15, 2017
Time Temperature Dew Point Pressure Wind Wind Speed Wind Gust Humidity Rainfall Rate (Hourly) solar Conditions
00:04 25.8 °C 13.6 °C 1011.1 hPa Calm     47 % 0.0 mm 0.0 W/m2 CLR
00:09 25.6 °C 13.4 °C 1011.4 hPa Calm     47 % 0.0 mm 0.0 W/m2 CLR
00:14 25.4 °C 13.3 °C 1011.4 hPa Calm     47 % 0.0 mm 0.0 W/m2 CLR
00:19 25.3 °C 13.2 °C 1011.4 hPa Calm     47 % 0.0 mm 0.0 W/m2 CLR
00:24 25.3 °C 13.8 °C 1011.4 hPa Calm     49 % 0.0 mm 0.0 W/m2 CLR
00:29 25.0 °C 13.6 °C 1011.4 hPa Calm     49 % 0.0 mm 0.0 W/m2 CLR
00:34 24.8 °C 13.4 °C 1011.7 hPa Calm     49 % 0.0 mm 0.0 W/m2 CLR
00:39 24.6 °C 13.5 °C 1011.7 hPa Calm     50 % 0.0 mm 0.0 W/m2 CLR
00:44 24.5 °C 13.4 °C 1011.7 hPa Calm     50 % 0.0 mm 0.0 W/m2 CLR
00:49 24.4 °C 13.3 °C 1011.7 hPa Calm     50 % 0.0 mm 0.0 W/m2 CLR
00:54 24.5 °C 13.4 °C 1011.7 hPa Calm     50 % 0.0 mm 0.0 W/m2 CLR
00:59 24.5 °C 13.4 °C 1011.7 hPa Calm     50 % 0.0 mm 0.0 W/m2 CLR
01:04 24.4 °C 13.7 °C 1011.7 hPa Calm     51 % 0.0 mm 0.0 W/m2 CLR
01:09 24.4 °C 13.6 °C 1011.7 hPa Calm     51 % 0.0 mm 0.0 W/m2 CLR
01:14 24.3 °C 13.6 °C 1011.7 hPa Calm     51 % 0.0 mm 0.0 W/m2 CLR
01:19 24.3 °C 13.2 °C 1011.7 hPa Calm     50 % 0.0 mm 0.0 W/m2 CLR
01:24 24.2 °C 13.4 °C 1011.7 hPa Calm     51 % 0.0 mm 0.0 W/m2 CLR
01:29 24.2 °C 13.4 °C 1011.7 hPa Calm     51 % 0.0 mm 0.0 W/m2 CLR
01:34 24.2 °C 13.4 °C 1011.7 hPa Calm     51 % 0.0 mm 0.0 W/m2 CLR
01:39 24.2 °C 13.4 °C 1011.7 hPa Calm     51 % 0.0 mm 0.0 W/m2 CLR
01:44 24.1 °C 13.3 °C 1011.7 hPa Calm     51 % 0.0 mm 0.0 W/m2 CLR
01:49 24.0 °C 13.6 °C 1011.7 hPa Calm     52 % 0.0 mm 0.0 W/m2 CLR
01:54 23.8 °C 13.9 °C 1011.7 hPa Calm     54 % 0.0 mm 0.0 W/m2 CLR
01:59 23.6 °C 13.7 °C 1011.7 hPa Calm     54 % 0.0 mm 0.0 W/m2 CLR
02:04 23.4 °C 13.6 °C 1011.7 hPa Calm     54 % 0.0 mm 0.0 W/m2 CLR
02:09 23.4 °C 13.6 °C 1011.7 hPa Calm     54 % 0.0 mm 0.0 W/m2 CLR
02:10 23.4 °C 13.6 °C 1011.7 hPa Calm     54 % 0.0 mm 0.0 W/m2 CLR
02:15 23.3 °C 13.4 °C 1011.7 hPa Calm     54 % 0.0 mm 0.0 W/m2 CLR
02:20 23.2 °C 13.9 °C 1011.7 hPa Calm     56 % 0.0 mm 0.0 W/m2 CLR
02:25 23.1 °C 13.6 °C 1011.7 hPa Calm     55 % 0.0 mm 0.0 W/m2 CLR
02:30 23.0 °C 13.7 °C 1011.7 hPa Calm     56 % 0.0 mm 0.0 W/m2 CLR
02:35 22.6 °C 13.7 °C 1011.7 hPa Calm     57 % 0.0 mm 0.0 W/m2 CLR
02:40 22.3 °C 13.7 °C 1011.7 hPa Calm     58 % 0.0 mm 0.0 W/m2 CLR
02:45 22.2 °C 13.5 °C 1011.7 hPa Calm     58 % 0.0 mm 0.0 W/m2 CLR
02:50 22.1 °C 13.7 °C 1011.7 hPa Calm     59 % 0.0 mm 0.0 W/m2 CLR
02:55 22.0 °C 13.6 °C 1011.7 hPa Calm     59 % 0.0 mm 0.0 W/m2 CLR
03:00 21.9 °C 13.8 °C 1012.1 hPa Calm     60 % 0.0 mm 0.0 W/m2 CLR
03:05 21.8 °C 13.7 °C 1011.7 hPa Calm     60 % 0.0 mm 0.0 W/m2 CLR
03:10 21.7 °C 13.9 °C 1011.7 hPa Calm     61 % 0.0 mm 0.0 W/m2 CLR
03:15 21.5 °C 13.7 °C 1011.7 hPa Calm     61 % 0.0 mm 0.0 W/m2 CLR
03:20 21.4 °C 13.8 °C 1012.1 hPa Calm     62 % 0.0 mm 0.0 W/m2 CLR
03:25 21.3 °C 13.7 °C 1012.1 hPa Calm     62 % 0.0 mm 0.0 W/m2 CLR
03:30 21.2 °C 13.9 °C 1012.1 hPa Calm     63 % 0.0 mm 0.0 W/m2 CLR
03:35 21.2 °C 14.1 °C 1012.1 hPa Calm     64 % 0.0 mm 0.0 W/m2 CLR
03:40 21.1 °C 14.0 °C 1012.1 hPa Calm     64 % 0.0 mm 0.0 W/m2 CLR
03:45 20.9 °C 13.9 °C 1012.1 hPa Calm     64 % 0.0 mm 0.0 W/m2 CLR
03:50 20.8 °C 13.7 °C 1012.1 hPa Calm     64 % 0.0 mm 0.0 W/m2 CLR
03:55 20.7 °C 13.9 °C 1012.1 hPa Calm     65 % 0.0 mm 0.0 W/m2 CLR
04:00 20.6 °C 13.8 °C 1012.1 hPa Calm     65 % 0.0 mm 0.0 W/m2 CLR
04:05 20.4 °C 13.7 °C 1012.1 hPa Calm     65 % 0.0 mm 0.0 W/m2 CLR
04:10 20.3 °C 13.7 °C 1012.1 hPa Calm     66 % 0.0 mm 0.0 W/m2 CLR
04:15 20.2 °C 13.7 °C 1012.1 hPa Calm     66 % 0.0 mm 0.0 W/m2 CLR
04:20 20.2 °C 13.7 °C 1012.1 hPa Calm     66 % 0.0 mm 0.0 W/m2 CLR
04:25 20.1 °C 13.8 °C 1012.4 hPa Calm     67 % 0.0 mm 0.0 W/m2 CLR
04:30 20.1 °C 13.7 °C 1012.4 hPa Calm     67 % 0.0 mm 0.0 W/m2 CLR
04:35 19.9 °C 13.6 °C 1012.4 hPa Calm     67 % 0.0 mm 0.0 W/m2 CLR
04:40 19.8 °C 13.8 °C 1012.4 hPa Calm     68 % 0.0 mm 0.0 W/m2 CLR
04:45 19.8 °C 13.7 °C 1012.4 hPa Calm     68 % 0.0 mm 0.0 W/m2 CLR
04:50 19.7 °C 13.6 °C 1012.4 hPa Calm     68 % 0.0 mm 0.0 W/m2 CLR
04:55 19.6 °C 13.7 °C 1012.8 hPa Calm     69 % 0.0 mm 0.0 W/m2 CLR
05:00 19.5 °C 13.7 °C 1012.8 hPa Calm     69 % 0.0 mm 0.0 W/m2 CLR
05:05 19.5 °C 13.7 °C 1012.8 hPa Calm     69 % 0.0 mm 0.0 W/m2 CLR
05:10 19.5 °C 13.7 °C 1012.8 hPa Calm     69 % 0.0 mm 0.0 W/m2 CLR
05:15 19.5 °C 13.7 °C 1012.8 hPa Calm     69 % 0.0 mm 0.0 W/m2 CLR
05:20 19.5 °C 13.7 °C 1012.8 hPa Calm     69 % 0.0 mm 0.0 W/m2 CLR
05:25 19.4 °C 13.6 °C 1013.1 hPa Calm     69 % 0.0 mm 0.0 W/m2 CLR
05:30 19.3 °C 13.5 °C 1013.1 hPa Calm     69 % 0.0 mm 0.0 W/m2 CLR
05:35 19.2 °C 13.6 °C 1013.1 hPa Calm     70 % 0.0 mm 0.0 W/m2 CLR
05:40 19.2 °C 13.6 °C 1013.1 hPa Calm     70 % 0.0 mm 0.0 W/m2 CLR
05:45 19.2 °C 13.6 °C 1013.1 hPa Calm     70 % 0.0 mm 0.0 W/m2 CLR
05:50 19.2 °C 13.6 °C 1013.1 hPa Calm     70 % 0.0 mm 0.0 W/m2 CLR
05:55 19.2 °C 13.6 °C 1013.1 hPa Calm     70 % 0.0 mm 0.0 W/m2 CLR
06:00 19.4 °C 13.6 °C 1013.1 hPa Calm     69 % 0.0 mm 0.0 W/m2 CLR
06:05 19.7 °C 13.8 °C 1013.4 hPa WSW 5.6 km/h 5.6 km/h 69 % 0.0 mm 0.0 W/m2 CLR
06:06 19.7 °C 13.8 °C 1013.4 hPa WSW 5.6 km/h 5.6 km/h 69 % 0.0 mm 0.0 W/m2 CLR
06:11 19.8 °C 13.8 °C 1013.4 hPa WSW 5.6 km/h 5.6 km/h 68 % 0.0 mm 0.0 W/m2 CLR
06:16 19.9 °C 13.6 °C 1013.4 hPa WSW 5.6 km/h 5.6 km/h 67 % 0.0 mm 0.0 W/m2 CLR
06:21 20.1 °C 13.7 °C 1013.4 hPa Calm     67 % 0.0 mm 0.0 W/m2 OVC
06:26 20.1 °C 13.7 °C 1013.4 hPa Calm     67 % 0.0 mm 0.0 W/m2 OVC
06:31 20.1 °C 13.7 °C 1013.4 hPa Calm     67 % 0.0 mm 5.0 W/m2 OVC
06:36 19.9 °C 13.8 °C 1013.8 hPa Calm     68 % 0.0 mm 9.0 W/m2 BKN
06:41 19.6 °C 13.8 °C 1013.8 hPa Calm     69 % 0.0 mm 12.0 W/m2 BKN
06:46 19.4 °C 13.8 °C 1013.8 hPa Calm     70 % 0.0 mm 16.0 W/m2 BKN
06:51 19.3 °C 13.9 °C 1013.8 hPa Calm     71 % 0.0 mm 21.0 W/m2 BKN
06:56 19.1 °C 13.7 °C 1013.8 hPa Calm     71 % 0.0 mm 25.0 W/m2 BKN
07:01 19.2 °C 14.0 °C 1013.8 hPa Calm     72 % 0.0 mm 30.0 W/m2 BKN
07:06 19.6 °C 14.2 °C 1013.8 hPa SSW 5.6 km/h 5.6 km/h 71 % 0.0 mm 39.0 W/m2 BKN
07:11 20.0 °C 14.1 °C 1013.8 hPa SSW 1.9 km/h 1.9 km/h 69 % 0.0 mm 46.0 W/m2 SCT
07:16 20.1 °C 14.2 °C 1013.8 hPa SSW 5.6 km/h 5.6 km/h 69 % 0.0 mm 56.0 W/m2 SCT
07:21 20.4 °C 14.3 °C 1013.8 hPa SW 6.4 km/h 6.4 km/h 68 % 0.0 mm 67.0 W/m2 FEW
07:26 20.9 °C 14.6 °C 1014.1 hPa Calm     67 % 0.0 mm 81.0 W/m2 FEW
07:31 21.1 °C 14.7 °C 1014.1 hPa Calm     67 % 0.0 mm 95.0 W/m2 FEW
07:36 21.2 °C 14.6 °C 1014.1 hPa Calm     66 % 0.0 mm 109.0 W/m2 CLR
07:41 21.2 °C 14.6 °C 1014.1 hPa Calm     66 % 0.0 mm 125.0 W/m2 CLR
07:46 21.2 °C 14.6 °C 1014.4 hPa Calm     66 % 0.0 mm 141.0 W/m2 CLR
07:51 21.3 °C 14.7 °C 1014.4 hPa Calm     66 % 0.0 mm 163.0 W/m2 CLR
07:56 21.6 °C 14.7 °C 1014.4 hPa Calm     65 % 0.0 mm 163.0 W/m2 CLR
08:01 21.9 °C 14.8 °C 1014.4 hPa Calm     64 % 0.0 mm 178.0 W/m2 CLR
08:06 22.3 °C 14.9 °C 1014.4 hPa Calm     63 % 0.0 mm 220.0 W/m2 CLR
08:11 22.7 °C 15.1 °C 1014.4 hPa Calm     62 % 0.0 mm 230.0 W/m2 CLR
08:16 23.1 °C 15.1 °C 1014.4 hPa Calm     61 % 0.0 mm 216.0 W/m2 CLR
08:21 23.3 °C 15.1 °C 1014.8 hPa Calm     60 % 0.0 mm 221.0 W/m2 CLR
08:26 23.5 °C 15.3 °C 1014.8 hPa Calm     60 % 0.0 mm 218.0 W/m2 CLR
08:31 23.7 °C 15.5 °C 1014.8 hPa Calm     60 % 0.0 mm 246.0 W/m2 CLR
08:36 24.1 °C 15.6 °C 1014.8 hPa Calm     59 % 0.0 mm 250.0 W/m2 CLR
08:41 24.3 °C 15.6 °C 1014.8 hPa Calm     58 % 0.0 mm 241.0 W/m2 CLR
08:46 24.6 °C 15.5 °C 1014.8 hPa Calm     57 % 0.0 mm 265.0 W/m2 CLR
08:51 24.9 °C 15.5 °C 1014.8 hPa Calm     56 % 0.0 mm 274.0 W/m2 CLR
08:56 25.1 °C 15.4 °C 1014.8 hPa Calm     55 % 0.0 mm 294.0 W/m2 CLR
09:01 25.3 °C 15.3 °C 1014.8 hPa Calm     54 % 0.0 mm 285.0 W/m2 CLR
09:06 25.5 °C 15.5 °C 1014.8 hPa Calm     54 % 0.0 mm 323.0 W/m2 CLR
09:11 25.8 °C 14.6 °C 1014.8 hPa NW 13.0 km/h 13.0 km/h 50 % 0.0 mm 329.0 W/m2 CLR
09:16 25.9 °C 14.4 °C 1014.8 hPa WNW 11.1 km/h 11.1 km/h 49 % 0.0 mm 311.0 W/m2 CLR
09:21 26.1 °C 14.8 °C 1014.8 hPa West 13.0 km/h 13.0 km/h 50 % 0.0 mm 309.0 W/m2 CLR
09:26 26.1 °C 14.6 °C 1015.1 hPa WSW 9.3 km/h 9.3 km/h 49 % 0.0 mm 350.0 W/m2 CLR
09:31 26.3 °C 14.7 °C 1015.1 hPa NW 5.6 km/h 5.6 km/h 49 % 0.0 mm 411.0 W/m2 CLR
09:36 26.5 °C 14.6 °C 1015.1 hPa SW 5.6 km/h 5.6 km/h 48 % 0.0 mm 431.0 W/m2 CLR
09:42 26.7 °C 14.7 °C 1015.1 hPa WSW 6.4 km/h 6.4 km/h 48 % 0.0 mm 485.0 W/m2 CLR
09:47 26.7 °C 14.2 °C 1015.1 hPa WSW 11.1 km/h 11.1 km/h 46 % 0.0 mm 519.0 W/m2 CLR
09:52 26.8 °C 13.5 °C 1015.1 hPa West 11.1 km/h 11.1 km/h 44 % 0.0 mm 529.0 W/m2 CLR
09:57 26.9 °C 13.7 °C 1015.5 hPa NW 7.4 km/h 7.4 km/h 44 % 0.0 mm 531.0 W/m2 CLR
10:02 27.1 °C 13.8 °C 1015.5 hPa Calm     44 % 0.0 mm 517.0 W/m2 CLR
10:07 27.5 °C 13.8 °C 1015.1 hPa WSW 5.6 km/h 5.6 km/h 43 % 0.0 mm 547.0 W/m2 CLR
10:12 27.6 °C 13.8 °C 1015.1 hPa WSW 9.3 km/h 9.3 km/h 43 % 0.0 mm 547.0 W/m2 CLR
10:17 27.7 °C 14.0 °C 1015.5 hPa Calm   2.4 km/h 43 % 0.0 mm 603.0 W/m2 CLR
10:22 27.9 °C 13.8 °C 1015.1 hPa WNW 11.1 km/h   42 % 0.0 mm 592.0 W/m2 CLR
10:27 28.1 °C 14.0 °C 1015.1 hPa NNW 1.9 km/h   42 % 0.0 mm 596.0 W/m2 CLR
10:32 28.6 °C 14.4 °C 1015.1 hPa NW 3.7 km/h 3.7 km/h 42 % 0.0 mm 613.0 W/m2 CLR
10:37 28.7 °C 14.1 °C 1015.1 hPa Calm     41 % 0.0 mm 619.0 W/m2 CLR
10:42 28.9 °C 14.3 °C 1015.5 hPa NNW 14.8 km/h 14.8 km/h 41 % 0.0 mm 545.0 W/m2 CLR
10:47 29.0 °C 14.4 °C 1015.1 hPa WNW 9.3 km/h 9.3 km/h 41 % 0.0 mm 650.0 W/m2 CLR
10:52 29.1 °C 14.1 °C 1015.1 hPa NNW 1.9 km/h   40 % 0.0 mm 661.0 W/m2 CLR
10:57 29.1 °C 14.1 °C 1015.5 hPa WNW 11.1 km/h 11.1 km/h 40 % 0.0 mm 570.0 W/m2 CLR
11:02 29.1 °C 14.1 °C 1015.5 hPa NW 9.3 km/h 9.3 km/h 40 % 0.0 mm 705.0 W/m2 CLR
11:07 29.2 °C 14.2 °C 1015.5 hPa North 1.9 km/h   40 % 0.0 mm 534.0 W/m2 CLR
11:12 29.4 °C 14.1 °C 1015.5 hPa WSW 1.9 km/h   39 % 0.0 mm 631.0 W/m2 CLR
11:17 29.6 °C 14.1 °C 1015.5 hPa NW 7.4 km/h 7.4 km/h 39 % 0.0 mm 745.0 W/m2 CLR
11:22 29.6 °C 14.1 °C 1015.5 hPa NNW 5.6 km/h 5.6 km/h 39 % 0.0 mm 640.0 W/m2 CLR
11:27 29.6 °C 14.2 °C 1015.5 hPa NW 11.3 km/h 11.3 km/h 39 % 0.0 mm 768.0 W/m2 CLR
11:32 29.7 °C 14.2 °C 1015.5 hPa NNW 7.4 km/h 7.4 km/h 39 % 0.0 mm 814.0 W/m2 CLR
11:37 29.8 °C 14.3 °C 1015.5 hPa Calm     39 % 0.0 mm 791.0 W/m2 CLR
11:42 29.7 °C 13.9 °C 1015.5 hPa Calm     38 % 0.0 mm 334.0 W/m2 CLR
11:47 29.9 °C 14.1 °C 1015.5 hPa Calm     38 % 0.0 mm 642.0 W/m2 CLR
11:52 30.1 °C 14.2 °C 1015.5 hPa NNE 5.6 km/h 5.6 km/h 38 % 0.0 mm 555.0 W/m2 CLR
11:57 30.4 °C 14.5 °C 1015.5 hPa Calm     38 % 0.0 mm 775.0 W/m2 CLR
12:02 30.6 °C 14.3 °C 1015.5 hPa Calm     37 % 0.0 mm 837.0 W/m2 CLR
12:07 30.8 °C 14.4 °C 1015.5 hPa Calm     37 % 0.0 mm 831.0 W/m2 CLR
12:12 31.2 °C 14.4 °C 1015.5 hPa NNW 1.9 km/h 1.9 km/h 36 % 0.0 mm 810.0 W/m2 CLR
12:17 31.3 °C 14.4 °C 1015.5 hPa Calm     36 % 0.0 mm 847.0 W/m2 CLR
12:22 31.3 °C 14.9 °C 1015.5 hPa NNE 5.6 km/h 5.6 km/h 37 % 0.0 mm 853.0 W/m2 CLR
12:27 31.7 °C 14.8 °C 1015.5 hPa Calm     36 % 0.0 mm 860.0 W/m2 CLR
12:32 31.9 °C 14.6 °C 1015.5 hPa Calm     35 % 0.0 mm 830.0 W/m2 CLR
12:37 31.9 °C 14.9 °C 1015.5 hPa Calm     36 % 0.0 mm 849.0 W/m2 CLR
12:42 31.9 °C 15.4 °C 1015.5 hPa ENE 1.9 km/h 1.9 km/h 37 % 0.0 mm 856.0 W/m2 CLR
12:47 32.3 °C 14.9 °C 1015.5 hPa NNW 3.2 km/h 3.2 km/h 35 % 0.0 mm 846.0 W/m2 CLR
12:52 32.2 °C 15.3 °C 1015.5 hPa Calm     36 % 0.0 mm 886.0 W/m2 CLR
12:57 32.4 °C 15.4 °C 1015.5 hPa NE 13.0 km/h 13.0 km/h 36 % 0.0 mm 872.0 W/m2 CLR
13:02 32.5 °C 15.5 °C 1015.5 hPa Calm     36 % 0.0 mm 944.0 W/m2 CLR
13:07 32.5 °C 15.1 °C 1015.5 hPa ENE 7.4 km/h 7.4 km/h 35 % 0.0 mm 800.0 W/m2 CLR
13:12 32.5 °C 15.5 °C 1015.5 hPa East 9.3 km/h 9.3 km/h 36 % 0.0 mm 861.0 W/m2 CLR
13:17 32.4 °C 15.0 °C 1015.1 hPa ENE 5.6 km/h 5.6 km/h 35 % 0.0 mm 849.0 W/m2 CLR
13:22 32.4 °C 15.0 °C 1015.1 hPa NE 9.3 km/h 9.3 km/h 35 % 0.0 mm 875.0 W/m2 CLR
13:27 32.6 °C 15.2 °C 1015.1 hPa ESE 5.6 km/h 5.6 km/h 35 % 0.0 mm 886.0 W/m2 CLR
13:32 32.7 °C 15.2 °C 1015.1 hPa ENE 5.6 km/h   35 % 0.0 mm 865.0 W/m2 CLR
13:37 32.8 °C 15.8 °C 1015.1 hPa NNE 9.3 km/h 9.3 km/h 36 % 0.0 mm 891.0 W/m2 CLR
13:42 33.0 °C 15.5 °C 1015.1 hPa ENE 9.7 km/h 9.7 km/h 35 % 0.0 mm 893.0 W/m2 CLR
13:47 32.8 °C 15.3 °C 1015.1 hPa East 1.9 km/h 1.9 km/h 35 % 0.0 mm 909.0 W/m2 CLR
13:52 33.1 °C 15.1 °C 1015.1 hPa East 8.0 km/h 8.0 km/h 34 % 0.0 mm 914.0 W/m2 CLR
13:57 33.2 °C 15.7 °C 1015.1 hPa Calm   1.0 km/h 35 % 0.0 mm 916.0 W/m2 CLR
14:02 33.4 °C 15.8 °C 1015.1 hPa ENE 1.6 km/h   35 % 0.0 mm 756.0 W/m2 CLR
14:07 33.4 °C 15.4 °C 1015.1 hPa Calm     34 % 0.0 mm 926.0 W/m2 CLR
14:12 33.6 °C 15.1 °C 1015.1 hPa NE 6.4 km/h 6.4 km/h 33 % 0.0 mm 900.0 W/m2 CLR
14:17 33.6 °C 15.1 °C 1014.8 hPa Calm     33 % 0.0 mm 807.0 W/m2 CLR
14:22 33.7 °C 15.7 °C 1014.8 hPa NE 5.6 km/h   34 % 0.0 mm 745.0 W/m2 CLR
14:27 33.8 °C 15.8 °C 1014.8 hPa Calm     34 % 0.0 mm 854.0 W/m2 CLR
14:32 34.1 °C 16.0 °C 1014.8 hPa NNW 11.1 km/h 11.1 km/h 34 % 0.0 mm 796.0 W/m2 CLR
14:33 34.1 °C 16.0 °C 1014.8 hPa NW 11.1 km/h 11.1 km/h 34 % 0.0 mm 796.0 W/m2 CLR
14:38 34.1 °C 15.6 °C 1014.8 hPa NW 9.3 km/h 9.3 km/h 33 % 0.0 mm 849.0 W/m2 CLR
14:43 34.3 °C 15.7 °C 1014.8 hPa Calm     33 % 0.0 mm 849.0 W/m2 CLR
14:48 34.9 °C 15.7 °C 1014.4 hPa ENE 1.6 km/h   32 % 0.0 mm 891.0 W/m2 CLR
14:53 35.2 °C 15.5 °C 1014.4 hPa NE 5.6 km/h 5.6 km/h 31 % 0.0 mm 911.0 W/m2 CLR
14:58 35.2 °C 15.5 °C 1014.4 hPa Calm     31 % 0.0 mm 867.0 W/m2 CLR
15:03 35.2 °C 15.5 °C 1014.4 hPa NE 9.3 km/h 9.3 km/h 31 % 0.0 mm 868.0 W/m2 CLR
15:08 35.3 °C 15.6 °C 1014.4 hPa Calm     31 % 0.0 mm 904.0 W/m2 CLR
15:13 35.5 °C 15.8 °C 1014.4 hPa ENE 1.9 km/h   31 % 0.0 mm 949.0 W/m2 CLR
15:18 35.3 °C 15.6 °C 1014.4 hPa Calm     31 % 0.0 mm 916.0 W/m2 CLR
15:23 35.3 °C 15.1 °C 1014.1 hPa Calm     30 % 0.0 mm 932.0 W/m2 CLR
15:28 35.3 °C 15.1 °C 1014.1 hPa North 8.0 km/h 8.0 km/h 30 % 0.0 mm 946.0 W/m2 CLR
15:33 35.5 °C 15.3 °C 1014.1 hPa NNW 8.0 km/h 8.0 km/h 30 % 0.0 mm 993.0 W/m2 CLR
15:38 35.8 °C 15.0 °C 1014.1 hPa WNW 6.4 km/h 6.4 km/h 29 % 0.0 mm 747.0 W/m2 CLR
15:43 35.7 °C 14.9 °C 1014.1 hPa West 5.6 km/h 5.6 km/h 29 % 0.0 mm 599.0 W/m2 CLR
15:48 35.7 °C 14.9 °C 1014.1 hPa WNW 5.6 km/h 5.6 km/h 29 % 0.0 mm 673.0 W/m2 CLR
15:53 35.9 °C 15.1 °C 1014.1 hPa WNW 6.4 km/h 6.4 km/h 29 % 0.0 mm 606.0 W/m2 CLR
15:58 36.0 °C 15.2 °C 1014.1 hPa Calm     29 % 0.0 mm 615.0 W/m2 CLR
16:03 35.9 °C 15.1 °C 1014.1 hPa Calm     29 % 0.0 mm 392.0 W/m2 CLR
16:08 35.8 °C 15.0 °C 1014.1 hPa Calm     29 % 0.0 mm 343.0 W/m2 CLR
16:13 35.6 °C 14.8 °C 1014.1 hPa Calm     29 % 0.0 mm 302.0 W/m2 CLR
16:18 35.6 °C 14.8 °C 1014.1 hPa Calm     29 % 0.0 mm 279.0 W/m2 CLR
16:23 35.6 °C 15.4 °C 1013.8 hPa NNE 1.9 km/h 1.9 km/h 30 % 0.0 mm 262.0 W/m2 CLR
16:28 35.7 °C 15.4 °C 1013.8 hPa NNW 5.6 km/h 5.6 km/h 30 % 0.0 mm 244.0 W/m2 CLR
16:33 35.5 °C 15.3 °C 1013.8 hPa Calm     30 % 0.0 mm 218.0 W/m2 CLR
16:38 35.3 °C 15.6 °C 1013.8 hPa NNW 7.4 km/h 7.4 km/h 31 % 0.0 mm 174.0 W/m2 CLR
16:43 34.9 °C 15.3 °C 1013.8 hPa North 9.3 km/h 9.3 km/h 31 % 0.0 mm 139.0 W/m2 CLR
16:48 34.6 °C 15.5 °C 1013.8 hPa North 9.7 km/h 9.7 km/h 32 % 0.0 mm 113.0 W/m2 CLR
16:53 34.3 °C 15.7 °C 1014.1 hPa WNW 9.7 km/h 9.7 km/h 33 % 0.0 mm 100.0 W/m2 CLR
16:58 34.1 °C 15.5 °C 1014.1 hPa NNW 7.4 km/h 7.4 km/h 33 % 0.0 mm 95.0 W/m2 CLR
17:03 33.8 °C 15.7 °C 1014.1 hPa WNW 12.9 km/h 12.9 km/h 34 % 0.0 mm 100.0 W/m2 CLR
17:08 33.6 °C 15.6 °C 1014.4 hPa NW 13.0 km/h 13.0 km/h 34 % 0.0 mm 111.0 W/m2 CLR
17:13 33.6 °C 15.6 °C 1014.4 hPa WNW 13.0 km/h 13.0 km/h 34 % 0.0 mm 123.0 W/m2 CLR
17:16 33.6 °C 15.6 °C 1014.4 hPa WNW 11.1 km/h 11.1 km/h 34 % 0.0 mm 134.0 W/m2 CLR
17:21 33.5 °C 15.5 °C 1014.4 hPa WNW 11.3 km/h 11.3 km/h 34 % 0.0 mm 155.0 W/m2 CLR
17:26 33.5 °C 15.9 °C 1014.4 hPa WNW 7.4 km/h 7.4 km/h 35 % 0.0 mm 174.0 W/m2 CLR
17:31 33.5 °C 15.9 °C 1014.4 hPa West 11.1 km/h 11.1 km/h 35 % 0.0 mm 186.0 W/m2 CLR
17:36 33.5 °C 16.4 °C 1014.4 hPa West 14.8 km/h 14.8 km/h 36 % 0.0 mm 190.0 W/m2 CLR
17:41 33.5 °C 15.9 °C 1014.4 hPa West 18.5 km/h 18.5 km/h 35 % 0.0 mm 183.0 W/m2 CLR
17:46 33.5 °C 15.9 °C 1014.4 hPa WSW 9.7 km/h 9.7 km/h 35 % 0.0 mm 174.0 W/m2 CLR
17:51 33.5 °C 15.9 °C 1014.4 hPa WSW 12.9 km/h 12.9 km/h 35 % 0.0 mm 167.0 W/m2 CLR
17:56 33.5 °C 15.9 °C 1014.4 hPa West 8.0 km/h 8.0 km/h 35 % 0.0 mm 156.0 W/m2 CLR
18:01 33.4 °C 15.9 °C 1014.4 hPa West 16.7 km/h 16.7 km/h 35 % 0.0 mm 148.0 W/m2 CLR
18:06 33.4 °C 15.9 °C 1014.4 hPa West 11.3 km/h 11.3 km/h 35 % 0.0 mm 144.0 W/m2 CLR
18:12 33.3 °C 15.8 °C 1014.4 hPa WSW 11.1 km/h 11.1 km/h 35 % 0.0 mm 144.0 W/m2 CLR
18:17 33.3 °C 16.2 °C 1014.4 hPa WSW 5.6 km/h 5.6 km/h 36 % 0.0 mm 144.0 W/m2 CLR
18:22 33.3 °C 15.7 °C 1014.4 hPa West 7.4 km/h 7.4 km/h 35 % 0.0 mm 142.0 W/m2 CLR
18:27 33.2 °C 16.1 °C 1014.4 hPa SW 9.3 km/h 9.3 km/h 36 % 0.0 mm 139.0 W/m2 CLR
18:32 33.2 °C 16.1 °C 1014.1 hPa Calm     36 % 0.0 mm 137.0 W/m2 CLR
18:37 33.1 °C 16.1 °C 1014.1 hPa Calm     36 % 0.0 mm 137.0 W/m2 CLR
18:42 33.1 °C 15.6 °C 1014.1 hPa Calm     35 % 0.0 mm 132.0 W/m2 CLR
18:47 33.1 °C 15.6 °C 1013.8 hPa Calm     35 % 0.0 mm 128.0 W/m2 CLR
18:52 33.1 °C 16.0 °C 1013.8 hPa Calm     36 % 0.0 mm 123.0 W/m2 CLR
18:57 33.1 °C 16.0 °C 1013.8 hPa Calm     36 % 0.0 mm 118.0 W/m2 CLR
19:02 33.1 °C 15.6 °C 1013.8 hPa Calm     35 % 0.0 mm 109.0 W/m2 CLR
19:07 33.1 °C 16.0 °C 1013.8 hPa Calm     36 % 0.0 mm 98.0 W/m2 CLR
19:12 33.1 °C 16.0 °C 1013.8 hPa Calm     36 % 0.0 mm 91.0 W/m2 CLR
19:17 33.1 °C 16.0 °C 1014.1 hPa Calm     36 % 0.0 mm 88.0 W/m2 CLR
19:19 33.0 °C 15.9 °C 1014.1 hPa Calm     36 % 0.0 mm 88.0 W/m2 CLR
19:24 32.9 °C 15.4 °C 1014.1 hPa Calm     35 % 0.0 mm 86.0 W/m2 CLR
19:29 32.9 °C 14.9 °C 1014.1 hPa Calm     34 % 0.0 mm 88.0 W/m2 CLR
19:34 32.9 °C 14.5 °C 1014.1 hPa Calm     33 % 0.0 mm 90.0 W/m2 CLR
19:39 32.9 °C 14.9 °C 1014.4 hPa Calm     34 % 0.0 mm 86.0 W/m2 CLR
19:44 32.8 °C 14.4 °C 1014.4 hPa Calm     33 % 0.0 mm 79.0 W/m2 CLR
19:50 32.8 °C 13.9 °C 1014.4 hPa Calm     32 % 0.0 mm 72.0 W/m2 FEW
19:55 32.8 °C 13.9 °C 1014.1 hPa Calm     32 % 0.0 mm 65.0 W/m2 FEW
20:00 32.8 °C 15.3 °C 1014.4 hPa Calm     35 % 0.0 mm 63.0 W/m2 FEW
20:05 32.7 °C 14.8 °C 1014.4 hPa Calm     34 % 0.0 mm 63.0 W/m2 SCT
20:10 32.6 °C 15.6 °C 1014.4 hPa Calm     36 % 0.0 mm 63.0 W/m2 SCT
20:15 32.4 °C 15.8 °C 1014.4 hPa Calm     37 % 0.0 mm 60.0 W/m2 SCT
20:20 32.2 °C 16.1 °C 1014.4 hPa Calm     38 % 0.0 mm 54.0 W/m2 SCT
20:25 31.9 °C 15.0 °C 1014.4 hPa Calm     36 % 0.0 mm 49.0 W/m2 SCT
20:30 31.9 °C 16.2 °C 1014.8 hPa Calm     39 % 0.0 mm 44.0 W/m2 SCT
20:35 31.7 °C 15.7 °C 1014.8 hPa Calm     38 % 0.0 mm 37.0 W/m2 BKN
20:40 31.6 °C 15.1 °C 1014.8 hPa Calm     37 % 0.0 mm 32.0 W/m2 BKN
20:45 31.4 °C 14.9 °C 1014.8 hPa Calm     37 % 0.0 mm 25.0 W/m2 BKN
20:50 31.2 °C 16.0 °C 1015.1 hPa Calm     40 % 0.0 mm 21.0 W/m2 BKN
20:55 31.1 °C 15.1 °C 1015.1 hPa Calm     38 % 0.0 mm 16.0 W/m2 BKN
21:00 30.9 °C 15.4 °C 1015.1 hPa Calm     39 % 0.0 mm 12.0 W/m2 BKN
21:05 30.7 °C 14.8 °C 1015.1 hPa Calm     38 % 0.0 mm 9.0 W/m2 BKN
21:10 30.7 °C 14.7 °C 1015.5 hPa Calm     38 % 0.0 mm 7.0 W/m2 BKN
21:15 30.5 °C 15.4 °C 1015.5 hPa Calm     40 % 0.0 mm 5.0 W/m2 OVC
21:20 30.3 °C 15.2 °C 1015.5 hPa Calm     40 % 0.0 mm 0.0 W/m2 OVC
21:25 30.2 °C 15.1 °C 1015.5 hPa Calm     40 % 0.0 mm 0.0 W/m2 OVC
21:30 30.0 °C 15.7 °C 1015.8 hPa Calm     42 % 0.0 mm 0.0 W/m2 OVC
21:35 29.7 °C 15.4 °C 1015.8 hPa Calm     42 % 0.0 mm 0.0 W/m2 OVC
21:40 29.5 °C 15.2 °C 1016.1 hPa Calm     42 % 0.0 mm 0.0 W/m2 OVC
21:45 29.3 °C 16.1 °C 1016.1 hPa Calm     45 % 0.0 mm 0.0 W/m2 CLR
21:50 28.9 °C 15.8 °C 1016.1 hPa Calm     45 % 0.0 mm 0.0 W/m2 CLR
21:55 28.6 °C 15.8 °C 1016.5 hPa Calm     46 % 0.0 mm 0.0 W/m2 CLR
22:00 28.3 °C 15.2 °C 1016.5 hPa Calm     45 % 0.0 mm 0.0 W/m2 CLR
22:05 28.3 °C 15.2 °C 1017.2 hPa WNW 25.7 km/h 25.7 km/h 45 % 0.0 mm 0.0 W/m2 CLR
22:07 28.7 °C 15.2 °C 1017.2 hPa NW 27.8 km/h 27.8 km/h 44 % 0.0 mm 0.0 W/m2 CLR
22:12 29.3 °C 16.1 °C 1017.2 hPa NW 11.1 km/h 11.1 km/h 45 % 0.0 mm 0.0 W/m2 CLR
22:17 29.3 °C 16.5 °C 1017.2 hPa WNW 9.3 km/h 9.3 km/h 46 % 0.0 mm 0.0 W/m2 CLR
22:22 29.2 °C 17.1 °C 1017.5 hPa NW 9.3 km/h 9.3 km/h 48 % 0.0 mm 0.0 W/m2 CLR
22:27 29.0 °C 17.2 °C 1017.5 hPa WNW 13.0 km/h 13.0 km/h 49 % 0.0 mm 0.0 W/m2 CLR
22:32 28.9 °C 17.4 °C 1017.5 hPa NW 5.6 km/h 5.6 km/h 50 % 0.0 mm 0.0 W/m2 CLR
22:37 28.7 °C 17.6 °C 1017.8 hPa NW 7.4 km/h 7.4 km/h 51 % 0.0 mm 0.0 W/m2 CLR
22:42 28.6 °C 17.8 °C 1017.8 hPa NW 5.6 km/h 5.6 km/h 52 % 0.0 mm 0.0 W/m2 CLR
22:47 28.6 °C 17.7 °C 1017.8 hPa Calm     52 % 0.0 mm 0.0 W/m2 CLR
22:52 28.5 °C 18.0 °C 1017.8 hPa Calm     53 % 0.0 mm 0.0 W/m2 CLR
22:57 28.4 °C 17.9 °C 1017.8 hPa Calm     53 % 0.0 mm 0.0 W/m2 CLR
23:02 28.3 °C 17.8 °C 1017.8 hPa Calm     53 % 0.0 mm 0.0 W/m2 CLR
23:07 28.2 °C 18.1 °C 1018.2 hPa Calm     54 % 0.0 mm 0.0 W/m2 CLR
23:12 28.1 °C 17.9 °C 1017.8 hPa Calm     54 % 0.0 mm 0.0 W/m2 CLR
23:17 27.9 °C 17.8 °C 1017.8 hPa Calm     54 % 0.0 mm 0.0 W/m2 CLR
23:22 27.8 °C 17.7 °C 1017.8 hPa Calm     54 % 0.0 mm 0.0 W/m2 CLR
23:27 27.7 °C 17.6 °C 1017.8 hPa Calm     54 % 0.0 mm 0.0 W/m2 CLR
23:32 27.6 °C 17.4 °C 1017.8 hPa Calm     54 % 0.0 mm 0.0 W/m2 CLR
23:37 27.5 °C 17.4 °C 1017.8 hPa Calm     54 % 0.0 mm 0.0 W/m2 CLR
23:42 27.3 °C 17.5 °C 1017.8 hPa Calm     55 % 0.0 mm 0.0 W/m2 CLR
23:47 27.1 °C 17.5 °C 1018.2 hPa Calm     56 % 0.0 mm 0.0 W/m2 CLR
23:52 27.0 °C 17.5 °C 1018.2 hPa Calm     56 % 0.0 mm 0.0 W/m2 CLR
23:57 26.9 °C 17.4 °C 1018.2 hPa Calm     56 % 0.0 mm 0.0 W/m2 CLR
Lo Temps de Massalio
Compliments of Weather Underground - 1.25 mb